Lid_Strength_Index
8 8 9 9 9 9 9 8 8 8 8 9 9 9 9 9 9 9 8 8 8 8 9 9 9 9 9 9 9 8 8 9 8 12 11 12 13 13 13 12 12 12 11
8 8 9 9 9 10 10 9 9 10 9 10 10 10 10 10 9 9 9 9 9 9 9 9 10 10 10 10 10 10 9 10 9 12 12 12 13 13 13 13 14 13 12
8 8 9 9 9 10 10 10 10 10 10 9 10 10 10 9 9 9 8 8 8 8 9 9 10 10 10 11 11 11 11 11 10 11 12 12 12 13 13 14 13 13 13
8 8 8 8 8 9 9 10 10 10 10 10 10 10 10 10 10 9 9 9 9 9 9 10 10 11 11 11 12 11 12 11 11 11 12 13 13 15 14 14 14 14 14
7 8 8 8 8 8 9 9 9 10 10 10 10 10 10 10 10 9 9 9 9 10 10 11 11 12 13 12 12 12 12 12 12 13 14 14 14 15 15 15 15 15 15
8 8 7 8 8 9 9 9 9 10 10 10 10 10 10 10 10 10 10 10 10 11 12 12 13 13 13 13 13 13 13 13 13 13 14 15 16 16 16 16 16 16 16
8 8 8 9 9 9 9 10 10 10 10 10 10 10 10 10 10 10 10 11 11 12 12 13 13 13 13 13 13 13 14 14 14 14 15 15 17 16 16 18 18 18 18
8 9 9 9 9 10 10 10 10 10 10 10 10 10 10 11 10 10 10 11 12 12 12 13 13 13 12 13 14 16 17 17 17 16 16 17 17 17 17 18 19 20 20
10 10 10 10 10 10 11 10 10 10 11 11 10 10 10 11 11 10 10 12 13 13 13 13 13 13 13 13 16 17 17 17 16 15 15 15 16 17 18 19 21 20 21
11 11 11 11 11 11 10 10 10 10 11 11 11 10 10 10 10 10 10 13 14 15 15 15 15 15 13 13 16 17 19 19 18 18 18 18 19 19 19 20 21 21 22
12 12 12 11 11 11 11 10 10 11 11 10 11 10 10 10 11 10 9 13 13 15 16 15 15 14 13 13 15 17 18 19 19 20 21 21 21 22 22 22 22 21 22
14 14 13 13 12 12 12 11 11 11 11 11 11 11 11 11 10 9 9 12 12 14 15 16 15 13 14 14 15 15 16 19 20 21 22 22 22 23 23 23 23 23 23
17 16 15 14 14 13 13 12 12 11 11 11 11 11 11 11 11 9 8 10 12 15 15 14 14 13 14 15 15 16 20 21 22 22 22 23 23 23 23 24 24 24 24
18 17 16 15 14 13 13 12 12 12 11 11 11 12 12 12 12 11 9 9 11 14 14 14 14 14 16 16 17 20 21 22 22 22 23 23 24 24 25 24 25 24 24
19 17 16 15 15 14 13 13 13 11 11 11 11 11 12 13 12 10 10 10 13 14 15 15 16 18 20 21 22 22 23 23 23 23 24 25 24 24 25 25 26 26 25
20 18 17 16 15 15 14 14 12 11 10 9 9 9 11 11 11 10 9 10 12 12 15 17 20 20 21 22 23 24 23 24 24 24 24 24 25 25 26 27 26 27 26
21 19 18 17 16 16 15 15 14 12 11 10 9 9 9 11 11 11 9 10 11 13 18 18 19 20 21 22 22 23 24 23 24 25 25 25 25 26 27 27 27 27 27
22 20 18 17 17 16 15 15 14 14 13 12 10 10 9 10 11 11 10 11 14 17 18 19 19 20 20 20 21 22 23 24 25 25 25 26 26 27 28 28 27 28 27
21 20 19 18 17 17 16 15 14 14 13 13 12 12 13 11 11 11 10 14 18 20 20 20 20 20 21 21 22 23 24 25 25 26 27 28 28 28 28 27 27 29 30
21 21 21 18 18 17 16 16 15 15 14 14 14 14 14 14 17 19 17 18 19 21 21 21 21 22 22 23 24 24 25 26 27 27 27 27 27 28 27 28 28 28 29
21 20 22 18 18 18 17 17 16 15 15 15 16 15 14 17 19 20 20 20 20 21 22 22 23 23 24 24 25 26 26 26 26 26 27 27 28 29 28 28 28 29 28
21 20 20 20 19 18 18 17 16 16 16 16 16 16 14 16 18 19 20 21 21 21 21 22 23 23 23 24 24 25 25 26 26 26 27 28 29 29 29 28 28 28 28
21 21 20 19 19 20 18 17 16 16 16 16 17 17 17 17 17 18 19 20 21 22 22 22 22 24 24 24 24 24 25 26 26 26 27 28 29 28 29 28 29 29 28
21 20 20 19 19 19 18 18 17 18 18 17 17 18 18 18 18 19 19 21 22 23 24 24 24 24 25 25 25 25 25 25 26 27 27 27 27 28 27 29 28 29 28
21 20 20 20 19 19 18 18 18 18 18 19 19 19 20 20 20 21 21 22 23 24 25 26 25 25 26 27 27 27 27 26 28 28 28 27 27 27 28 28 28 28 28
21 21 21 20 20 19 19 19 19 20 21 21 21 22 22 22 22 22 23 25 25 26 26 26 26 27 27 26 26 27 28 27 27 29 28 28 28 28 29 29 29 28 28